Moose Lake, MN

8:56 PM CDT on October 16, 2017 (GMT -0500)
Moose Lake-Carlton County

Weather History for KMZH - January, 2014

Change the Weather History Date:

Sunday, January 12, 2014

  Actual Average Record
Temperature  
Mean Temperature 25 °F -  
Max Temperature 35 °F 18 °F 45 °F (1987)
Min Temperature 15 °F -2 °F -38 °F (1954)
Degree Days  
Heating Degree Days 40    
Moisture  
Dew Point 26 °F    
Average Humidity 88    
Maximum Humidity 100    
Minimum Humidity 75    
Precipitation  
Precipitation 0.02 in - - ()
Sea Level Pressure  
Sea Level Pressure 29.38 in    
Wind  
Wind Speed 5 mph (SSW)    
Max Wind Speed 10 mph    
Max Gust Speed 17 mph    
Visibility 8 miles    
Events      
Averages and records for this station are not official NWS values.
T = Trace of Precipitation, MM = Missing Value Source: NWS Daily Summary

Daily Weather History Graph

Daily Weather History Graph

Search for Another Location

Airport or City:

Trip Planner

Search our weather history database for the weather conditions in past years. The results will help you decide how hot, cold, wet, or windy it might be!

Date:

Astronomy

Jan. 12, 2014 Rise Set
Actual Time 7:52 AM CST 4:47 PM CST
Civil Twilight 7:18 AM CST 5:21 PM CST
Nautical Twilight 6:40 AM CST 5:58 PM CST
Astronomical Twilight 6:04 AM CST 6:35 PM CST
Moon 2:16 PM CST (1/12) 4:49 AM CST (1/12)
Length of Visible Light 10h 03m
Length of Day
8h 55m
Waxing Gibbous, 90% of the Moon is Illuminated
Jan 12
Waxing Gibbous
Jan 15
Full
Jan 23
Last Quarter
Jan 30
New
Feb 6
First Quarter

Hourly Weather History & Observations

Time (CST) Temp. Windchill Dew Point Humidity Pressure Visibility Wind Dir Wind Speed Gust Speed Precip Events Conditions
12:08 AM 15.8 °F 8.6 °F 14.0 °F 93% 29.56 in 5.0 mi SW 4.6 mph - N/A   Mostly Cloudy
12:28 AM 17.6 °F 12.3 °F 17.6 °F 100% 29.55 in 7.0 mi SSW 3.5 mph - N/A   Overcast
12:48 AM 19.4 °F 14.3 °F 17.6 °F 93% 29.53 in 7.0 mi SSW 3.5 mph - N/A   Overcast
1:08 AM 19.4 °F - 17.6 °F 93% 29.51 in 5.0 mi Calm Calm - N/A   Overcast
1:28 AM 21.2 °F 16.4 °F 19.4 °F 93% 29.51 in 3.0 mi South 3.5 mph - N/A   Overcast
1:48 AM 21.2 °F - 19.4 °F 93% 29.50 in 4.0 mi Calm Calm - N/A   Overcast
2:08 AM 21.2 °F 16.4 °F 19.4 °F 93% 29.49 in 5.0 mi South 3.5 mph - N/A   Overcast
2:28 AM 21.2 °F 13.6 °F 19.4 °F 93% 29.51 in 5.0 mi South 5.8 mph - N/A   Overcast
2:48 AM 21.2 °F 14.9 °F 19.4 °F 93% 29.49 in 5.0 mi South 4.6 mph - N/A   Overcast
3:08 AM 21.2 °F 16.4 °F 19.4 °F 93% 29.49 in 4.0 mi South 3.5 mph - N/A   Overcast
3:28 AM 21.2 °F 16.4 °F 19.4 °F 93% 29.47 in 5.0 mi SSE 3.5 mph - N/A   Mostly Cloudy
3:48 AM 21.2 °F 16.4 °F 19.4 °F 93% 29.45 in 5.0 mi South 3.5 mph - N/A   Overcast
4:08 AM 23.0 °F - 21.2 °F 93% 29.44 in 5.0 mi Calm Calm - N/A   Overcast
4:28 AM 23.0 °F - 21.2 °F 93% 29.44 in 5.0 mi Calm Calm - N/A   Overcast
4:48 AM 23.0 °F - 21.2 °F 93% 29.43 in 5.0 mi Calm Calm - N/A   Overcast
5:08 AM 23.0 °F - 21.2 °F 93% 29.40 in 5.0 mi Calm Calm - N/A   Overcast
5:28 AM 24.8 °F 20.5 °F 23.0 °F 93% 29.38 in 5.0 mi SE 3.5 mph - N/A   Overcast
5:48 AM 24.8 °F 19.1 °F 23.0 °F 93% 29.36 in 5.0 mi SE 4.6 mph - N/A   Overcast
6:08 AM 24.8 °F 17.9 °F 23.0 °F 93% 29.34 in 5.0 mi SE 5.8 mph - N/A   Mostly Cloudy
6:28 AM 26.6 °F - 23.0 °F 86% 29.33 in 7.0 mi Calm Calm - N/A   Overcast
6:48 AM 26.6 °F 21.2 °F 24.8 °F 93% 29.33 in 7.0 mi South 4.6 mph - N/A   Overcast
7:08 AM 26.6 °F 20.0 °F 24.8 °F 93% 29.33 in 7.0 mi SSW 5.8 mph - N/A   Overcast
7:28 AM 28.4 °F 20.4 °F 26.6 °F 93% 29.34 in 10.0 mi South 8.1 mph - N/A   Overcast
7:48 AM 28.4 °F 20.4 °F 24.8 °F 86% 29.34 in 10.0 mi SSW 8.1 mph - N/A   Overcast
8:08 AM 28.4 °F 22.2 °F 26.6 °F 93% 29.34 in 10.0 mi SSW 5.8 mph - N/A   Overcast
8:28 AM 30.2 °F 23.4 °F 26.6 °F 86% 29.33 in 5.0 mi South 6.9 mph - N/A   Overcast
8:48 AM 30.2 °F 25.4 °F 26.6 °F 86% 29.32 in 4.0 mi South 4.6 mph - 0.01 in   Overcast
9:08 AM 30.2 °F 22.6 °F 28.4 °F 93% 29.31 in 7.0 mi South 8.1 mph - 0.01 in   Overcast
9:28 AM 30.2 °F 23.4 °F 28.4 °F 93% 29.31 in 7.0 mi South 6.9 mph - 0.01 in   Overcast
9:48 AM 32.0 °F 24.8 °F 28.4 °F 87% 29.31 in 10.0 mi South 8.1 mph - 0.01 in   Overcast
10:08 AM 32.0 °F 25.6 °F 28.4 °F 87% 29.35 in 10.0 mi West 6.9 mph 17.3 mph N/A   Overcast
10:28 AM 32.0 °F 26.4 °F 28.4 °F 87% 29.35 in 10.0 mi SW 5.8 mph - N/A   Overcast
10:48 AM 32.0 °F 27.5 °F 28.4 °F 87% 29.34 in 10.0 mi SSW 4.6 mph - N/A   Mostly Cloudy
11:08 AM 32.0 °F 26.4 °F 28.4 °F 87% 29.33 in 10.0 mi SSW 5.8 mph - N/A   Overcast
11:28 AM 32.0 °F 25.6 °F 28.4 °F 87% 29.29 in 10.0 mi South 6.9 mph - N/A   Overcast
11:48 AM 32.0 °F 26.4 °F 28.4 °F 87% 29.29 in 10.0 mi South 5.8 mph - N/A   Overcast
12:08 PM 32.0 °F 24.8 °F 28.4 °F 87% 29.31 in 10.0 mi WSW 8.1 mph - N/A   Overcast
12:28 PM 33.8 °F 25.8 °F 28.4 °F 81% 29.30 in 10.0 mi SSW 10.4 mph - N/A   Overcast
12:48 PM 33.8 °F 27.0 °F 28.4 °F 81% 29.28 in 10.0 mi SSW 8.1 mph - N/A   Overcast
1:08 PM 33.8 °F 27.7 °F 28.4 °F 81% 29.27 in 10.0 mi SSW 6.9 mph - N/A   Overcast
1:28 PM 35.6 °F 31.7 °F 28.4 °F 75% 29.28 in 10.0 mi SSW 4.6 mph - N/A   Mostly Cloudy
1:48 PM 35.6 °F 28.0 °F 28.4 °F 75% 29.31 in 10.0 mi SSW 10.4 mph - N/A   Mostly Cloudy
2:08 PM 33.8 °F 27.0 °F 28.4 °F 81% 29.31 in 10.0 mi SW 8.1 mph - N/A   Overcast
2:28 PM 35.6 °F 29.2 °F 28.4 °F 75% 29.31 in 10.0 mi SSW 8.1 mph - N/A   Overcast
2:48 PM 35.6 °F 30.7 °F 28.4 °F 75% 29.32 in 10.0 mi SSW 5.8 mph - N/A   Overcast
3:08 PM 35.6 °F 30.7 °F 28.4 °F 75% 29.33 in 10.0 mi SW 5.8 mph - N/A   Scattered Clouds
3:28 PM 35.6 °F 29.2 °F 28.4 °F 75% 29.32 in 10.0 mi SSW 8.1 mph - N/A   Scattered Clouds
3:48 PM 35.6 °F 30.7 °F 28.4 °F 75% 29.33 in 10.0 mi SSW 5.8 mph - N/A   Clear
4:08 PM 33.8 °F 27.7 °F 28.4 °F 81% 29.32 in 10.0 mi SSW 6.9 mph - N/A   Clear
4:28 PM 33.8 °F 28.6 °F 28.4 °F 81% 29.34 in 10.0 mi SSW 5.8 mph - N/A   Clear
4:48 PM 33.8 °F 29.6 °F 28.4 °F 81% 29.34 in 10.0 mi SW 4.6 mph - N/A   Clear
5:08 PM 32.0 °F 25.6 °F 28.4 °F 87% 29.36 in 10.0 mi SSW 6.9 mph - N/A   Clear
5:28 PM 32.0 °F 27.5 °F 28.4 °F 87% 29.37 in 10.0 mi SW 4.6 mph - N/A   Clear
5:48 PM 32.0 °F 26.4 °F 28.4 °F 87% 29.38 in 10.0 mi SW 5.8 mph - N/A   Clear
6:08 PM 32.0 °F 26.4 °F 28.4 °F 87% 29.38 in 10.0 mi SW 5.8 mph - N/A   Clear
6:28 PM 32.0 °F 28.7 °F 28.4 °F 87% 29.38 in 10.0 mi SW 3.5 mph - N/A   Clear
6:48 PM 30.2 °F 25.4 °F 28.4 °F 93% 29.38 in 10.0 mi SW 4.6 mph - N/A   Clear
7:08 PM 30.2 °F 25.4 °F 28.4 °F 93% 29.38 in 10.0 mi SW 4.6 mph - N/A   Clear
7:28 PM 30.2 °F 23.4 °F 26.6 °F 86% 29.38 in 10.0 mi SSW 6.9 mph - N/A   Clear
7:48 PM 32.0 °F 25.6 °F 28.4 °F 87% 29.39 in 10.0 mi WSW 6.9 mph - N/A   Clear
8:08 PM 32.0 °F 24.2 °F 30.2 °F 93% 29.39 in 10.0 mi WSW 9.2 mph - N/A   Clear
8:28 PM 32.0 °F 26.4 °F 28.4 °F 87% 29.38 in 10.0 mi WSW 5.8 mph - N/A   Clear
8:48 PM 32.0 °F 26.4 °F 28.4 °F 87% 29.39 in 10.0 mi WSW 5.8 mph - N/A   Clear
9:08 PM 32.0 °F 27.5 °F 28.4 °F 87% 29.39 in 10.0 mi SW 4.6 mph - N/A   Clear
9:28 PM 32.0 °F 26.4 °F 28.4 °F 87% 29.40 in 10.0 mi WSW 5.8 mph - N/A   Clear
9:48 PM 32.0 °F 27.5 °F 28.4 °F 87% 29.40 in 10.0 mi WSW 4.6 mph - N/A   Clear
10:08 PM 32.0 °F 26.4 °F 28.4 °F 87% 29.41 in 10.0 mi WSW 5.8 mph - N/A   Clear
10:28 PM 32.0 °F 26.4 °F 28.4 °F 87% 29.41 in 10.0 mi WSW 5.8 mph - N/A   Clear
10:48 PM 32.0 °F 25.6 °F 28.4 °F 87% 29.42 in 10.0 mi West 6.9 mph - N/A   Clear
11:08 PM 32.0 °F 25.6 °F 28.4 °F 87% 29.42 in 10.0 mi West 6.9 mph - N/A   Clear
11:28 PM 32.0 °F 24.8 °F 28.4 °F 87% 29.42 in 10.0 mi West 8.1 mph - N/A   Clear
11:48 PM 32.0 °F 24.8 °F 28.4 °F 87% 29.42 in 10.0 mi West 8.1 mph - N/A   Clear